Weather History for Mount Holly, NJ

Change the Weather History Date:

Saturday, November 10, 2012

  Actual Average (KWRI) Record (KWRI)
Temperature  
Mean Temperature 44 °F -  
Max Temperature 57 °F 54 °F 73 °F (1999)
Min Temperature 30 °F 35 °F 21 °F (2003)
Degree Days  
Heating Degree Days 22    
Moisture  
Dew Point 34 °F    
Average Humidity 74    
Maximum Humidity 96    
Minimum Humidity 44    
Precipitation  
Precipitation 0.00 in - - ()
Sea Level Pressure  
Sea Level Pressure 30.33 in    
Wind  
Wind Speed 0 mph (SE)    
Max Wind Speed 4 mph    
Max Gust Speed -    
Visibility 9 miles    
Events      
Averages and records for this station are not official NWS values.
T = Trace of Precipitation, MM = Missing Value Source: NWS Daily Summary

Daily Weather History Graph

Daily Weather History Graph

Search for Another Location

Airport:

Trip Planner

Search our weather history database for the weather conditions in past years. The results will help you decide how hot, cold, wet, or windy it might be!

Date:

Astronomy

Nov. 10, 2012 Rise Set
Actual Time 6:39 AM EST 4:47 PM EST
Civil Twilight 6:10 AM EST 5:15 PM EST
Nautical Twilight 5:38 AM EST 5:48 PM EST
Astronomical Twilight 5:06 AM EST 6:19 PM EST
Moon 2:41 AM EST (11/10) 2:32 PM EST (11/10)
Length of Visible Light 11h 05m
Length of Day
10h 07m
Waning Crescent, 14% of the Moon is Illuminated
Nov 10
Waning Crescent
Nov 13
New
Nov 20
First Quarter
Nov 28
Full
Dec 6
Last Quarter

Hourly Weather History & Observations

Time (EST) Temp. Windchill Dew Point Humidity Pressure Visibility Wind Dir Wind Speed Gust Speed Precip Events Conditions
12:54 AM 33.1 °F - 30.9 °F 92% 30.24 in 10.0 mi Calm Calm - N/A   Clear
1:54 AM 32.0 °F - 30.0 °F 92% 30.24 in 10.0 mi Calm Calm - N/A   Clear
2:54 AM 32.0 °F - 30.0 °F 92% 30.25 in 9.0 mi Calm Calm - N/A   Clear
3:54 AM 30.9 °F - 30.0 °F 96% 30.27 in 8.0 mi Calm Calm - N/A   Clear
4:54 AM 30.9 °F - 28.9 °F 92% 30.28 in 7.0 mi Calm Calm - N/A   Clear
5:54 AM 30.0 °F - 28.9 °F 96% 30.30 in 7.0 mi Calm Calm - N/A   Clear
6:54 AM 30.0 °F 26.5 °F 28.9 °F 96% 30.31 in 5.0 mi South 3.5 mph - N/A   Clear
7:54 AM 34.0 °F - 32.0 °F 92% 30.35 in 8.0 mi Calm Calm - N/A   Clear
8:54 AM 45.0 °F - 37.0 °F 74% 30.35 in 8.0 mi Calm Calm - N/A   Clear
9:54 AM 51.1 °F - 36.0 °F 56% 30.34 in 10.0 mi Calm Calm - N/A   Clear
10:54 AM 52.0 °F - 35.1 °F 53% 30.35 in 10.0 mi Calm Calm - N/A   Overcast
11:54 AM 55.0 °F - 36.0 °F 49% 30.33 in 10.0 mi Calm Calm - N/A   Mostly Cloudy
12:54 PM 57.0 °F - 35.1 °F 44% 30.32 in 10.0 mi WNW 3.5 mph - N/A   Overcast
1:54 PM 57.0 °F - 35.1 °F 44% 30.31 in 10.0 mi Calm Calm - N/A   Overcast
2:54 PM 57.0 °F - 35.1 °F 44% 30.32 in 10.0 mi Calm Calm - N/A   Overcast
3:54 PM 55.9 °F - 37.9 °F 51% 30.33 in 10.0 mi Calm Calm - N/A   Overcast
4:54 PM 52.0 °F - 39.0 °F 61% 30.34 in 10.0 mi Calm Calm - N/A   Clear
5:54 PM 48.9 °F - 37.9 °F 66% 30.36 in 10.0 mi SE 3.5 mph - N/A   Clear
6:54 PM 48.9 °F - 37.9 °F 66% 30.37 in 10.0 mi East 3.5 mph - N/A   Mostly Cloudy
7:54 PM 45.0 °F - 37.9 °F 76% 30.38 in 10.0 mi Calm Calm - N/A   Clear
8:54 PM 44.1 °F - 37.9 °F 79% 30.40 in 9.0 mi Calm Calm - N/A   Clear
9:54 PM 39.9 °F - 37.0 °F 89% 30.41 in 7.0 mi Calm Calm - N/A   Clear
11:54 PM 39.0 °F - 37.0 °F 93% 30.42 in 6.0 mi Calm Calm - N/A   Clear